Voltar ao catálogo

COSMOS 1650

GLONASS

AtivoNavegaçãoMEO
NORAD 15697·PAYLOAD·🇷🇺 Russia

Lançado May 17, 1985 de Baikonur Cosmodrome

Loading…

Próximas Passagens (próximas 24 horas)

TLE

AtualizadoSource: Space-Track

Época: Sep 12, 2026, 03:46 UTC

1 15697U 85037A   26255.15714777  .00000000  00000-0  00000-0 0  9990
2 15697  64.9434  70.3140 0032230  32.2994 325.4790  2.13101896298149

Acompanhe COSMOS 1650 em tempo real com AllMySat

Download on the App Store